Regional Weather Roundup
Issued by NWS

Home | Current Version | Previous Version | Graphics & Text | Print | Product List | Glossary On
Versions: 1 2 3 4 5 6 7 8 9 10 11 12 13 14 15 16 17 18 19 20 21 22 23 24 25 26 27 28 29 30 31 32 33 34 35 36 37 38 39 40 41 42 43 44 45 46 47 48 49 50
000
ASUS43 KOAX 282202
RWRNE

WEATHER ROUNDUP FOR NEBRASKA
NATIONAL WEATHER SERVICE OMAHA NE
500 PM CDT FRI AUG 28 2015

NOTES: SATELLITE DATA IS BEING USED TO AUGMENT CLOUD COVER ABOVE
       12000 FEET.
       "FAIR" INDICATES FEW OR NO CLOUDS BELOW 12,000 FEET WITH NO
       SIGNIFICANT WEATHER AND/OR OBSTRUCTIONS TO VISIBILITY.

  * THESE STATIONS DO NOT REPORT WEATHER SUCH AS RAIN...SNOW OR FOG.

NEZ001>004-019>022-054>056-282300-
NEBRASKA PANHANDLE

CITY           SKY/WX    TMP DP  RH WIND       PRES   REMARKS
SCOTTSBLUFF    SUNNY     89  42  19 N8        30.09S
ALLIANCE       SUNNY     87  44  22 N12       30.09S
CHADRON        SUNNY     91  46  21 VRB5      30.04F HAZE
KIMBALL        SUNNY     83  43  24 N10       30.15S
SIDNEY         SUNNY     88  45  22 NE14G23   30.12S
$$

NEZ057>060-069>072-079>082-282300-
SOUTHWEST NEBRASKA

CITY           SKY/WX    TMP DP  RH WIND       PRES   REMARKS
NORTH PLATTE   SUNNY     82  63  52 NE13G21   30.01S
IMPERIAL       SUNNY     89  53  29 N9        30.03S
LEXINGTON      MOSUNNY   80  64  59 N14       29.99S
MC COOK        SUNNY     87  59  38 N14       29.99S
OGALLALA       SUNNY     89  51  27 N8        30.04R
$$

NEZ005>010-023>029-035>040-094-282300-
NORTH CENTRAL NEBRASKA

CITY           SKY/WX    TMP DP  RH WIND       PRES   REMARKS
VALENTINE      SUNNY     81  60  48 NE6       30.02S
AINSWORTH      SUNNY     76  63  64 NE7       30.02F
BROKEN BOW     MOSUNNY   79  61  53 N8        30.00S
O`NEILL        PTSUNNY   75  64  69 N12       29.99R
ORD            CLOUDY    74  61  63 N9        29.97S
THEDFORD       SUNNY     81  62  51 N7        30.04S
$$

NEZ041-046>049-061>064-073>077-083>087-282300-
SOUTH CENTRAL NEBRASKA

CITY           SKY/WX    TMP DP  RH WIND       PRES   REMARKS
GRAND ISLAND   CLOUDY    75  61  61 N16       29.95F
AURORA         CLOUDY    73  65  76 N12G17    29.94S
HASTINGS       PTSUNNY   78  63  59 N18       29.95S
HEBRON         CLOUDY    76  64  65 N13G20    29.91R
HOLDREGE       MOSUNNY   77  62  59 N12G17    29.97F
KEARNEY *      PTSUNNY   79  59  50 N14G22    29.97S
YORK           CLOUDY    72  66  83 N10G17    29.93S
$$

NEZ011>018-030>034-042>045-282300-
NORTHEAST NEBRASKA

CITY           SKY/WX    TMP DP  RH WIND       PRES   REMARKS
NORFOLK        CLOUDY    74  63  68 N20G25    29.92R
ALBION         CLOUDY    73  62  70 N12       29.95S
BLAIR          CLOUDY    72  64  76 NW9       29.87S
COLUMBUS *     CLOUDY   N/A N/A N/A NW8       29.91S
FREMONT        CLOUDY    72  64  75 NW12G17   29.89R
TEKAMAH        CLOUDY    71  66  84 NW9       29.86R
$$

NEZ050>053-065>068-078-088>093-282300-
SOUTHEAST NEBRASKA

CITY           SKY/WX    TMP DP  RH WIND       PRES   REMARKS
LINCOLN        CLOUDY    74  64  71 NW14      29.90R
OMAHA EPPLEY   PTSUNNY   74  66  76 NW15      29.85S
BEATRICE       CLOUDY    76  67  73 NW13      29.88S
FALLS CITY     CLOUDY    81  73  76 CALM      29.84F
NEBRASKA CITY  CLOUDY    75  66  75 NW9       29.86R
PLATTSMOUTH    CLOUDY    73  65  78 NW10      29.86S
$$

NEZ044-045-051>053-067-282300-
OMAHA AREA

CITY           SKY/WX    TMP DP  RH WIND       PRES   REMARKS
EPPLEY FIELD   PTSUNNY   74  66  76 NW15      29.85S
BLAIR          CLOUDY    72  64  76 NW9       29.87S
FREMONT        CLOUDY    72  64  75 NW12G17   29.89R
MILLARD        CLOUDY    75  66  74 NW10G17   29.86S
OFFUTT AFB     MOSUNNY   75  67  75 NW12      29.85R
PLATTSMOUTH    CLOUDY    73  65  78 NW10      29.86S
WAHOO          CLOUDY    72  65  80 NW12      29.88S
$$



USA.gov is the U.S. government's official web portal to all federal, state and local government web resources and services.